GEFSMA_500_meanwind_174.txt.gz
Wind_Speed
7 8 8 8 8 8 8 7 6 5 5 4 3 2 1 2 3 4 5 6 7 8 9 9 10 10 10 11 11 12 13 14 15 16 16 16 16 15 16 16 15 15 15
7 8 8 8 8 8 8 8 7 6 5 4 3 2 1 1 2 4 5 5 6 7 8 9 10 10 10 10 11 12 13 14 15 16 16 16 15 14 15 16 17 17 17
8 8 8 8 8 9 8 8 7 7 6 6 5 3 2 2 2 3 4 5 6 6 7 8 9 11 10 10 11 12 13 14 14 16 16 15 16 16 16 17 17 17 18
8 8 8 8 8 8 8 8 7 7 7 6 5 4 4 3 3 3 4 4 5 6 6 8 9 10 10 10 10 11 11 11 12 14 15 16 16 17 17 17 18 18 18
7 8 7 8 8 8 8 8 7 7 7 6 6 5 5 4 4 4 4 4 5 5 7 8 8 9 9 9 10 10 11 11 12 13 15 16 16 16 17 18 19 19 19
7 7 7 7 8 8 8 8 8 7 7 7 7 6 5 5 4 4 5 5 5 5 6 7 8 9 9 10 10 10 11 12 13 14 14 16 16 17 17 19 20 20 19
6 7 7 7 7 7 8 8 8 8 8 8 7 7 6 6 6 5 5 5 5 6 6 7 8 10 11 11 11 11 11 12 13 14 15 16 16 17 17 18 20 20 19
6 6 6 6 7 7 7 7 7 7 8 8 8 7 7 7 6 7 6 6 6 6 7 7 7 9 11 12 12 12 12 12 13 14 14 14 15 17 17 18 19 20 21
5 6 6 6 6 6 7 7 7 7 8 8 8 7 7 7 7 7 7 7 7 6 7 7 8 9 10 12 13 13 14 14 15 15 16 16 16 16 17 18 19 20 21
6 6 6 6 6 6 6 7 7 8 8 8 8 8 8 8 8 8 8 8 8 8 8 9 9 9 10 12 13 14 15 15 15 15 16 16 17 17 18 19 19 20 21
6 6 6 7 7 7 7 7 8 9 9 9 9 9 9 9 9 10 10 10 10 10 10 10 10 11 11 12 12 14 15 16 16 16 17 17 18 18 18 19 20 21 21
7 7 7 7 8 8 8 9 9 9 10 9 10 10 11 11 11 12 12 12 11 11 11 11 12 12 12 12 12 13 14 15 16 16 17 18 19 20 20 20 20 21 22
7 8 8 8 8 8 9 9 10 10 10 10 11 12 12 12 13 13 14 13 13 13 13 12 12 13 13 14 14 14 15 15 16 16 17 18 19 21 21 21 21 21 22
9 9 9 9 9 9 9 9 10 10 11 11 12 13 13 13 14 15 15 14 14 14 14 14 14 14 15 15 15 16 16 17 17 18 18 19 20 21 22 22 23 24 24
10 10 10 9 9 10 10 10 11 11 12 12 13 13 14 14 15 15 16 16 16 16 15 15 15 15 15 16 17 17 18 18 18 19 19 20 22 22 22 23 24 25 25
12 11 11 11 11 11 11 11 12 12 13 13 14 14 15 15 15 16 16 16 16 17 17 16 16 15 16 18 18 19 19 19 20 20 21 22 23 23 23 24 24 25 26
13 13 13 12 12 12 12 12 13 13 14 14 15 15 15 16 16 16 17 17 17 17 17 17 17 17 17 18 18 19 20 20 21 21 21 22 23 24 24 24 25 27 27
14 14 14 14 14 14 14 14 14 14 15 15 15 16 16 17 17 18 18 18 18 18 18 18 18 19 19 19 19 19 20 20 21 22 22 23 23 24 25 26 26 27 28
15 15 16 15 15 15 16 16 16 16 16 16 17 17 18 18 19 19 20 20 20 20 20 19 19 20 20 20 19 19 20 20 21 22 23 24 25 26 27 28 29 29 30
17 17 17 17 17 17 17 17 17 17 18 18 18 19 19 20 20 21 21 21 21 22 22 22 21 21 21 21 21 21 22 22 23 24 25 26 26 27 28 29 30 30 30
18 18 18 18 18 18 18 19 19 19 20 20 20 20 21 22 22 23 23 23 24 24 24 24 24 24 24 24 24 24 24 24 25 26 27 28 29 29 29 30 31 31 32
19 19 19 19 19 19 20 20 20 21 21 22 22 22 23 24 24 25 25 26 26 27 27 27 27 27 27 27 27 27 28 28 29 29 30 31 32 32 32 33 33 33 34
20 20 20 20 20 21 21 22 22 22 23 24 24 25 26 26 27 27 27 28 28 29 29 29 29 29 30 30 30 30 30 31 31 32 33 33 34 34 34 35 35 36 36
21 21 22 22 23 23 23 24 24 25 25 26 27 27 28 29 29 30 30 30 31 31 32 32 32 32 32 32 33 33 34 34 34 34 35 35 35 36 36 37 37 38 39
23 23 24 24 24 25 25 26 26 26 27 28 29 30 30 31 32 33 33 34 34 34 34 34 34 35 35 35 36 36 36 37 36 37 37 38 38 38 38 39 39 40 41
25 25 25 26 26 26 27 28 28 29 29 30 31 32 33 34 34 35 36 36 37 37 36 37 37 37 37 37 38 38 38 38 39 39 39 40 40 41 41 41 42 42 43

GEFSMA_500_meanwind_180.txt.gz
Wind_Speed
9 9 9 10 9 9 8 8 7 6 5 5 4 3 2 3 3 4 6 6 6 7 8 8 9 10 10 11 11 11 10 10 10 10 10 10 11 11 12 10 11 12 13
9 9 9 9 9 9 9 8 7 7 6 5 5 4 3 3 3 4 5 6 7 7 8 8 9 10 11 11 11 11 11 10 10 11 11 11 11 11 12 12 12 12 13
8 9 9 10 10 9 8 8 7 7 7 7 6 6 5 4 3 4 4 5 7 7 8 8 9 10 10 11 11 11 11 12 12 12 12 12 12 12 12 13 13 13 13
8 9 9 10 10 10 9 8 7 7 7 7 7 7 6 5 5 4 4 5 6 7 8 8 8 9 10 11 11 12 11 12 12 13 13 13 13 13 13 14 14 14 14
8 8 9 9 10 10 9 8 8 7 7 7 8 8 7 6 6 5 6 6 7 7 8 8 9 10 10 10 11 12 12 12 13 13 13 13 13 13 13 14 15 15 16
7 8 8 9 9 9 9 8 8 8 8 8 8 8 8 7 7 6 7 7 7 7 8 8 9 9 10 10 10 10 10 10 11 11 11 11 12 13 14 14 15 15 16
7 8 8 8 8 8 9 9 8 8 8 8 8 8 8 8 7 7 7 8 8 8 8 8 9 9 9 10 10 9 9 10 10 10 10 10 11 12 13 14 15 16 17
7 7 8 8 8 8 8 8 8 8 8 8 8 8 8 8 8 9 9 9 8 8 8 8 9 9 10 10 11 10 10 11 11 11 12 12 11 11 11 13 13 14 16
7 7 8 8 8 8 8 8 8 8 8 8 8 9 9 9 10 10 10 9 9 9 9 9 9 9 10 10 11 11 11 11 12 11 12 12 13 13 13 13 13 14 15
8 8 8 8 8 8 7 8 8 8 9 9 9 9 10 10 11 11 11 10 10 10 10 10 11 11 11 11 12 12 13 13 13 14 13 13 14 14 15 15 15 15 16
8 8 8 8 8 8 8 8 8 8 9 9 10 10 10 11 11 11 11 11 11 11 11 11 12 12 12 12 13 13 14 14 14 15 14 15 15 16 16 16 17 17 18
9 9 9 9 9 8 8 8 8 9 10 10 10 11 11 12 12 12 12 11 11 12 12 12 12 12 13 13 13 14 14 15 15 15 16 16 16 17 17 18 19 19 19
9 9 9 9 9 9 9 9 9 10 10 11 11 12 12 13 13 13 13 13 13 13 12 12 13 13 14 13 13 14 14 15 16 17 17 18 18 18 19 19 20 20 21
11 11 11 10 10 10 10 10 10 11 11 11 12 12 13 14 14 14 14 14 14 13 13 13 13 13 13 13 13 14 15 16 17 18 19 19 20 20 21 21 22 22 23
12 12 12 11 11 11 11 11 11 12 12 12 12 13 13 14 14 14 14 14 14 14 13 14 14 14 13 14 14 15 15 17 17 18 19 20 20 20 21 22 23 24 24
13 13 13 12 12 12 12 12 12 13 13 13 14 14 14 14 15 15 15 15 15 15 15 15 15 15 15 15 16 16 17 18 19 20 21 22 22 23 23 23 24 25 26
15 14 14 14 13 13 13 14 14 15 15 15 15 15 15 15 16 16 16 16 16 16 16 16 17 17 17 17 18 19 19 19 20 21 22 22 23 24 25 25 26 27 27
16 15 15 15 15 15 15 16 16 16 16 16 16 16 16 17 17 17 17 17 17 18 18 18 18 19 19 19 20 20 21 22 22 23 23 24 24 25 25 26 27 27 28
17 17 16 17 17 17 17 17 17 17 18 18 18 18 18 18 18 19 19 19 19 20 20 20 21 21 22 22 23 23 23 24 24 25 25 25 26 26 27 27 27 28 29
18 18 18 18 18 18 18 19 19 19 19 19 20 20 20 20 20 21 21 21 21 22 22 23 23 24 24 25 25 26 26 27 27 27 27 27 27 28 29 29 30 30 31
19 19 19 19 19 20 19 19 20 20 20 21 21 21 21 22 22 22 23 23 23 24 25 25 26 27 27 28 28 29 29 29 29 29 29 29 29 30 30 31 32 32 33
19 20 20 20 21 21 21 21 22 22 22 22 22 22 22 23 24 24 25 25 26 26 27 28 28 29 30 30 31 31 31 31 31 31 31 31 32 32 32 33 34 34 35
21 21 21 21 22 23 23 23 23 23 23 24 24 24 24 25 26 27 28 28 28 29 30 30 31 31 32 33 33 33 33 33 32 33 33 33 34 34 34 35 36 36 37
21 22 22 23 23 24 24 24 24 24 25 25 26 26 26 27 28 28 29 30 31 31 32 33 34 34 34 34 35 35 34 34 34 34 35 35 35 36 36 36 37 37 38
22 23 24 24 24 24 25 25 26 26 27 27 28 28 29 29 30 30 31 32 33 34 34 35 36 36 36 36 36 36 36 36 36 37 38 38 38 38 38 38 39 39 39
23 24 24 24 25 25 26 27 28 28 29 30 30 30 31 32 33 33 34 35 35 36 36 37 37 37 37 38 38 38 39 39 39 39 39 40 40 40 39 39 40 41 41

GEFSMA_500_meanwind_186.txt.gz
Wind_Speed
6 7 7 8 8 7 7 7 6 5 5 4 3 2 2 2 3 4 5 5 5 6 7 7 8 8 8 9 9 9 9 9 9 9 9 10 10 11 11 12 13 14 13
6 7 8 8 8 7 7 6 5 5 4 4 3 3 2 3 3 4 4 5 5 6 6 6 7 8 8 9 9 9 9 9 10 10 10 10 10 10 11 12 13 14 13
5 6 8 8 8 7 6 6 5 5 5 4 4 4 3 3 4 4 5 5 5 6 6 7 7 8 9 9 9 10 10 10 10 10 10 10 11 12 12 13 13 14 14
5 6 7 7 7 7 6 6 5 5 5 5 4 4 4 4 4 4 5 5 5 5 6 6 7 7 8 9 9 10 11 11 11 11 11 11 11 12 12 14 14 15 15
4 5 6 6 6 6 6 6 5 5 5 4 4 5 5 5 5 5 5 5 5 5 6 7 7 8 8 9 9 10 11 11 11 11 11 11 11 11 12 14 15 15 15
4 5 5 6 6 6 6 6 6 5 4 4 5 5 5 5 6 5 5 5 5 5 6 6 7 8 8 9 9 10 11 11 11 12 12 11 11 11 12 13 15 16 17
4 5 5 6 6 6 6 6 6 5 5 5 5 5 5 5 6 6 6 5 5 5 6 7 7 8 8 9 10 10 10 11 11 11 12 12 12 13 13 13 13 14 16
5 5 6 6 6 6 6 6 5 5 5 5 5 6 6 6 7 7 7 6 5 6 6 7 8 8 8 9 9 9 10 11 11 11 10 11 11 12 14 13 13 14 15
6 6 6 6 6 6 6 6 6 6 5 5 6 6 7 7 7 7 6 6 6 7 7 7 8 9 9 10 10 10 10 11 11 11 10 10 10 11 12 13 13 13 14
6 7 7 7 7 7 7 6 6 7 7 7 7 7 8 8 8 7 7 8 8 8 8 8 8 9 10 11 11 11 11 11 12 12 12 12 12 12 12 13 14 14 15
7 7 7 7 7 7 8 8 8 8 8 8 8 8 8 9 8 8 8 9 9 9 9 9 10 10 11 12 12 12 12 12 13 13 14 14 14 14 15 15 15 16 16
8 7 8 8 8 8 8 8 8 9 8 9 9 9 9 9 9 9 10 9 10 10 11 11 11 12 12 12 13 13 13 14 14 15 15 15 16 16 17 17 17 18 18
9 9 9 9 9 9 9 9 9 9 9 10 10 10 10 10 10 10 11 11 11 11 12 12 12 12 13 13 14 14 15 15 15 16 16 16 17 17 18 19 19 20 20
11 11 11 10 10 10 9 9 10 10 11 11 11 11 11 11 11 11 11 12 12 12 12 12 12 13 13 13 14 15 15 15 16 17 17 17 18 18 19 19 20 21 22
11 11 11 11 11 11 10 11 11 11 12 12 12 12 12 12 12 12 12 13 13 13 13 13 13 13 14 14 14 14 15 15 16 17 17 18 18 19 20 20 21 22 23
12 12 13 13 13 13 12 12 13 13 13 14 14 13 14 14 14 14 14 14 14 14 14 14 15 15 15 14 14 15 15 16 17 18 19 19 20 21 22 22 23 24 25
13 13 14 14 14 14 14 14 14 15 15 15 15 15 15 15 16 16 16 15 15 16 16 16 17 17 16 16 16 16 17 18 19 20 21 21 22 23 24 25 25 26 27
15 15 15 16 16 16 15 16 16 16 16 16 16 16 16 17 17 18 17 17 18 18 18 18 19 19 19 19 19 19 19 20 21 22 23 23 24 25 26 28 29 30 31
16 16 16 16 16 17 17 17 17 17 18 17 17 18 18 18 19 19 19 20 20 20 21 21 21 21 22 22 22 22 22 23 24 24 25 27 28 29 30 31 31 32 33
16 16 16 16 16 17 18 18 18 18 19 19 19 19 20 20 20 21 21 22 22 23 23 23 23 23 24 24 25 25 25 26 27 28 29 30 31 32 32 33 33 34 34
16 16 17 17 18 18 19 19 19 20 20 20 21 21 21 22 22 23 23 23 24 24 25 25 25 26 26 27 27 28 28 29 30 31 32 32 32 33 33 33 34 35 35
17 18 18 18 19 19 20 20 20 21 21 22 22 23 23 23 24 24 25 26 26 26 26 27 27 28 29 29 30 30 31 32 32 33 33 33 33 33 34 35 36 37 37
19 19 20 20 20 20 20 21 21 22 23 23 23 24 24 24 25 26 27 27 28 28 29 29 30 30 31 31 32 32 33 34 34 34 34 34 35 36 37 38 38 39 40
19 19 20 20 21 21 22 22 23 23 24 24 25 25 25 26 27 27 28 29 30 30 30 31 32 33 33 34 35 35 36 36 35 36 36 37 37 38 39 39 39 40 41
20 21 21 21 22 23 23 24 24 25 25 25 26 26 27 28 29 29 30 31 31 32 32 33 34 35 35 36 37 37 37 37 37 38 39 39 40 40 40 41 41 42 42
22 23 23 23 24 24 25 25 25 26 26 27 27 28 28 29 30 31 32 33 33 34 34 35 36 37 37 38 39 39 39 40 40 40 41 42 42 42 42 41 42 43 44

GEFSMA_500_meanwind_192.txt.gz
Wind_Speed
6 7 7 7 8 8 7 7 6 5 5 4 4 3 3 3 3 4 4 5 6 6 6 7 8 9 9 9 9 9 9 10 10 11 11 12 12 14 14 15 15 14 14
6 7 7 8 8 8 7 7 6 5 4 4 4 4 3 3 4 4 4 5 5 6 7 7 8 9 9 9 9 9 9 10 10 11 11 12 12 13 14 14 14 14 14
5 6 7 8 8 7 7 7 6 5 5 4 4 3 3 4 4 4 5 5 5 6 6 7 8 9 9 9 9 9 9 10 11 11 11 12 12 13 14 14 14 14 14
5 6 7 7 7 7 7 7 6 5 5 5 4 4 4 4 4 5 5 5 5 6 6 7 7 8 8 9 9 10 10 11 11 12 12 11 12 13 13 14 15 15 15
5 6 6 7 7 7 7 7 6 6 5 5 5 5 5 5 5 5 6 6 6 6 7 7 7 8 8 9 10 10 10 10 11 11 12 11 12 12 13 14 15 15 16
5 6 6 7 7 7 7 7 6 6 6 6 6 5 6 6 6 6 6 6 6 7 7 7 8 8 9 9 10 11 11 11 11 11 12 11 11 12 12 14 15 16 17
6 6 6 7 7 7 7 7 6 6 6 6 7 7 7 6 6 6 6 6 7 7 7 8 8 9 10 10 11 11 12 12 12 12 13 12 13 13 14 15 16 16 17
7 7 7 7 8 7 7 7 6 6 6 7 7 7 7 7 7 7 7 7 7 8 8 9 9 10 11 11 11 12 12 13 13 13 13 13 13 14 15 16 17 17 18
7 7 7 7 7 7 7 7 7 7 7 7 8 8 8 8 8 8 8 8 9 9 9 9 10 11 11 11 12 12 12 12 13 13 14 14 14 14 15 16 17 18 18
7 7 7 7 7 7 7 7 7 7 8 8 8 8 9 9 9 10 9 9 9 10 10 10 11 11 12 12 12 13 13 13 14 14 15 15 15 15 15 16 17 18 19
7 7 8 8 8 7 7 7 8 9 9 9 9 9 10 10 10 10 11 11 10 11 11 11 12 12 13 13 13 13 14 14 15 15 16 16 15 15 15 15 16 17 18
8 8 8 8 8 9 9 9 9 10 10 10 10 11 11 11 11 11 11 12 12 12 13 13 13 14 14 14 15 15 15 15 15 16 16 16 16 16 16 17 17 17 18
9 10 9 10 10 10 10 10 10 10 10 11 11 11 12 12 12 12 12 12 12 12 13 13 14 14 14 15 15 15 15 15 16 16 16 16 16 17 17 18 18 18 19
11 11 11 11 12 11 11 11 11 11 11 12 12 13 13 13 13 13 13 13 12 13 13 14 15 15 15 15 15 16 16 16 16 17 17 17 17 18 18 19 19 19 20
12 12 13 13 13 13 13 12 13 13 13 13 13 14 14 14 14 14 14 14 14 14 14 15 15 16 16 16 16 16 17 17 17 17 18 18 18 19 19 20 21 22 22
13 14 14 14 14 14 14 14 14 15 15 15 15 15 15 15 15 15 16 16 16 16 16 16 17 17 17 17 17 17 17 18 18 19 20 20 20 21 21 22 23 24 25
14 15 15 15 15 15 16 16 16 16 17 17 17 17 16 16 16 16 17 17 18 18 18 18 18 19 19 19 19 19 19 19 20 21 22 22 23 23 24 25 25 26 28
15 16 16 16 16 16 17 17 17 17 18 18 18 18 18 18 18 18 18 19 19 19 20 20 20 21 21 22 22 22 22 22 22 22 23 24 25 25 26 27 28 29 29
17 17 17 17 18 18 18 18 18 18 19 19 19 20 19 19 20 20 21 21 21 21 22 22 22 23 23 24 24 24 25 25 25 25 26 26 27 28 29 30 31 32 32
18 18 19 18 18 18 18 18 18 19 19 20 20 20 21 21 21 22 22 22 22 23 24 24 24 24 25 25 26 26 27 27 28 29 29 30 31 31 32 32 33 34 35
19 19 19 19 18 19 19 19 19 19 20 21 21 22 22 23 23 23 24 24 24 25 25 26 26 26 27 27 28 28 29 30 30 30 31 32 32 33 33 34 35 36 37
19 19 19 20 20 20 20 21 21 21 22 22 22 22 23 24 24 24 25 25 26 26 27 27 28 28 28 29 29 30 30 31 31 32 32 33 34 34 35 36 37 37 38
19 19 20 20 21 22 22 22 23 23 23 23 23 24 24 25 25 26 26 27 27 28 28 29 29 30 30 30 31 31 31 32 32 33 34 34 35 36 37 38 38 39 40
20 21 21 21 21 22 22 22 22 22 23 24 24 24 25 26 27 27 28 28 28 29 30 30 30 31 31 32 32 33 33 34 35 36 37 37 38 39 39 39 40 41 41
21 22 22 22 22 22 22 23 23 23 24 25 26 26 26 27 27 28 29 29 30 30 31 31 32 33 34 35 36 36 37 38 38 39 41 41 41 41 41 42 43 43 43
22 23 23 23 23 23 24 24 24 24 25 25 26 27 27 28 28 29 30 31 31 32 33 33 34 36 37 38 38 39 40 41 42 42 43 43 43 44 43 44 45 46 46

GEFSMA_500_meanwind_198.txt.gz
Wind_Speed
4 5 5 6 6 5 5 4 4 3 3 3 3 3 3 4 5 5 6 6 7 7 8 8 9 9 10 10 10 11 11 12 13 13 13 14 14 14 15 15 15 15 15
4 4 5 6 5 5 5 4 4 3 3 3 3 3 3 4 5 5 6 6 6 6 7 8 8 8 9 10 10 10 11 12 12 13 14 15 15 16 16 16 16 16 16
4 4 5 6 6 5 5 4 4 4 3 3 3 4 4 4 5 6 6 6 6 6 7 8 8 8 9 10 10 11 10 11 12 13 15 16 16 16 16 16 15 16 16
4 4 5 6 6 6 5 5 5 4 4 4 4 4 5 5 6 6 7 7 7 7 8 8 9 9 10 10 11 12 11 12 12 13 13 14 15 15 15 16 16 16 16
5 5 5 5 6 6 5 5 5 4 4 5 5 5 5 6 6 6 7 7 8 8 8 8 9 10 10 10 10 11 12 12 13 13 13 14 13 13 14 15 16 17 17
5 5 5 5 5 6 6 5 4 4 5 5 5 5 6 6 7 7 7 8 8 8 8 9 10 10 9 10 10 11 12 13 13 13 13 13 13 13 14 15 16 17 17
5 5 6 5 5 6 6 5 5 5 5 5 6 6 6 7 7 7 7 8 8 8 8 9 9 10 10 11 12 13 13 13 14 14 14 14 14 14 15 15 16 17 18
6 6 6 6 6 6 6 6 6 6 6 6 7 7 7 7 7 7 8 8 8 8 9 9 10 10 11 12 13 14 14 15 15 15 15 15 15 15 16 16 17 18 19
7 7 6 6 6 6 6 6 7 7 7 7 7 8 8 8 8 8 8 9 9 9 9 10 11 11 11 12 13 14 15 15 16 16 16 16 16 17 17 17 18 19 19
7 7 7 7 7 7 7 7 8 8 8 8 8 8 9 9 9 9 9 9 10 10 10 10 11 12 13 13 13 14 14 15 15 15 16 17 17 17 17 18 19 19 20
8 8 8 8 8 8 8 8 8 8 8 9 9 9 9 9 10 10 10 10 10 10 11 11 12 12 13 14 14 14 14 14 14 15 16 17 18 18 17 18 19 20 20
9 9 9 9 8 9 9 9 9 9 9 10 10 10 10 10 10 11 11 11 11 11 11 12 13 13 13 14 15 15 15 15 15 16 17 17 17 17 18 18 19 19 20
10 10 10 10 10 10 10 10 10 10 11 11 11 11 12 12 12 12 12 12 12 12 12 13 13 13 14 13 14 15 15 16 16 16 17 18 18 18 19 20 20 21 21
11 11 11 11 11 11 11 11 11 11 12 12 13 13 13 13 13 13 12 12 12 13 13 14 14 15 15 14 15 15 16 16 17 17 18 18 19 19 20 20 21 22 23
12 11 11 11 11 11 12 12 12 13 13 13 13 13 14 14 14 13 13 13 14 14 15 15 15 16 16 16 15 16 16 17 18 18 18 19 20 20 21 22 23 24 25
12 12 12 12 12 12 12 13 13 13 14 14 14 14 14 14 14 14 14 14 15 15 15 16 16 17 17 18 18 18 18 18 19 19 20 21 21 22 23 24 25 26 26
12 13 13 12 13 13 14 14 14 15 15 15 15 15 15 15 15 15 15 16 16 17 17 17 18 18 19 19 20 20 20 20 21 21 22 23 24 25 26 26 27 27 28
13 13 14 14 14 14 14 14 15 15 15 15 15 15 15 15 15 15 16 17 17 18 18 18 19 20 20 21 22 22 22 22 22 23 24 25 25 26 27 27 28 29 30
14 15 15 15 15 15 15 16 16 16 17 17 17 17 17 17 17 17 17 18 19 19 20 20 21 21 22 23 23 24 24 24 25 25 26 26 27 28 28 29 30 30 31
16 16 16 16 16 16 17 17 17 17 18 18 18 18 18 18 18 19 19 20 21 21 21 22 22 23 24 24 25 25 25 26 27 27 27 28 28 29 30 31 32 32 33
17 17 17 17 17 17 17 17 18 18 19 19 18 19 19 19 20 20 21 21 22 22 23 23 24 25 25 25 26 26 27 28 28 29 29 29 30 31 32 32 33 34 34
17 17 17 18 18 18 18 19 19 19 19 20 20 20 20 21 21 21 22 23 23 24 24 24 25 25 26 27 27 28 29 29 30 30 31 31 32 33 34 34 35 36 37
18 19 19 19 19 19 19 19 19 19 20 20 21 22 22 22 23 23 24 25 25 25 26 26 26 27 27 28 29 30 30 31 31 32 33 34 35 36 36 37 38 38 39
19 19 19 19 19 19 19 19 20 20 21 21 22 23 24 24 24 25 26 26 26 27 27 28 29 29 29 30 31 32 33 33 34 34 35 36 37 38 38 39 40 41 41
19 19 19 19 20 20 20 21 21 22 22 23 23 24 25 26 27 27 28 28 28 29 30 30 31 31 32 33 34 35 35 36 36 37 39 39 40 41 41 42 42 43 44
19 19 19 20 20 20 21 22 22 23 23 24 25 26 27 28 29 29 29 30 30 31 32 32 33 34 35 35 36 37 37 38 39 40 41 42 42 43 43 43 44 45 45